Regional Weather Roundup
Issued by NWS

Home | Current Version | Previous Version | Text Only | Print | Product List | Glossary On
Versions: 1 2 3 4 5 6 7 8 9 10 11 12 13 14 15 16 17 18 19 20 21 22 23 24 25 26 27 28
000
ASUS44 KBMX 191510
RWRAL

ALABAMA REGIONAL WEATHER ROUNDUP
NATIONAL WEATHER SERVICE BIRMINGHAM AL
1000 AM CDT SAT APR 19 2014

NOTE: "FAIR" INDICATES FEW OR NO CLOUDS BELOW 12,000 FEET
WITH NO SIGNIFICANT WEATHER AND/OR OBSTRUCTIONS TO VISIBILITY.

THE REMARK "TC" DENOTES TEMPERATURE IN DEGREES CELSIUS.

ALZ001>011-014-016>018-020-191600-
NORTH ALABAMA

CITY           SKY/WX    TMP DP  RH WIND       PRES   REMARKS
MUSCLE SHOALS  SUNNY     69  44  40 NE8       30.19S
HUNTSVILLE     PTSUNNY   65  44  46 N13       30.16R
DECATUR        MOSUNNY   68  44  42 N14       30.17R
HALEYVILLE     FAIR      66  44  45 N9        30.20S
GADSDEN        NOT AVBL
$$

ALZ012-013-022-023-030>036-040>044-191600-
WEST CENTRAL ALABAMA

CITY           SKY/WX    TMP DP  RH WIND       PRES   REMARKS
TUSCALOOSA     MOSUNNY   67  51  56 N10       30.15R
$$

ALZ015-024>027-033>036-040>044-191600-
CENTRAL ALABAMA

CITY           SKY/WX    TMP DP  RH WIND       PRES   REMARKS
BIRMINGHAM     PTSUNNY   65  48  54 NW15      30.13R
MONTGOMERY     PTSUNNY   65  50  58 N9        30.09S
SHELBY CO ARPT MOSUNNY   67  46  47 NE9       30.11R
MAXWELL AFB    MOSUNNY   69  57  66 NE7       30.09R
GREENVILLE     CLOUDY    64  52  64 N8        30.08S
$$

ALZ019-021-028-029-037-038-045>048-191600-
EAST CENTRAL ALABAMA

CITY           SKY/WX    TMP DP  RH WIND       PRES   REMARKS
ANNISTON       MOSUNNY   65  48  54 NE13      30.09S
ALEXANDER CITY MOSUNNY   65  49  54 NE9G18    30.09R
AUBURN         CLOUDY    57  52  82 NE17G26   30.08R
$$

ALZ051>064-191600-
SOUTHWEST ALABAMA

CITY           SKY/WX    TMP DP  RH WIND       PRES   REMARKS
MOBILE         MOSUNNY   65  51  60 N13       30.14R
BROOKLEY FIELD SUNNY     65  52  62 N12       30.14R
EVERGREEN      PTSUNNY   64  51  62 N10       30.10F
$$

ALZ049-050-065>069-191600-
SOUTHEAST ALABAMA

CITY           SKY/WX    TMP DP  RH WIND       PRES   REMARKS
DOTHAN         CLOUDY    57  52  83 N9        30.06R
OZARK          CLOUDY    58  53  83 N12       30.05R
TROY           CLOUDY    61  54  77 N10       30.07S
EUFAULA        CLOUDY    60  52  74 NE8G20    30.03R
$$



USA.gov is the U.S. government's official web portal to all federal, state and local government web resources and services.